Location: Bonningues
(50.7927°N, 2.0150°E)
Time: 17:47:47
(UTC+00:00)

Cosmos 1437 Rocket - Pass Details

Date: 08 August 2020
Orbit: 505 x 563 km, 81.2° (Epoch: 24 September)

Event Time Altitude Azimuth Distance (km) Brightness Sun altitude
Rises 22:02:46 0° 344° (NNW) 2,649 7.8 -18.8°
Reaches altitude 10° 22:04:57 10° 341° (NNW) 1,749 6.6 -19.0°
Maximum altitude 22:08:43 59° 262° (W) 594 3.0 -19.3°
Enters shadow 22:09:41 43° 207° (SSW) 727 3.1 -19.3°
